Showing default

COSMOS 2337, 24725

Orbit data source: Space-Track

COSMOS 2337, 24725 is a payload satellite owned by VKS (CIS) in LEO that was launched on Fri, 14 Feb 1997 UTC via a TSIKLON-3 launch vehicle from the Plesetsk Missile And Space Complex (PKMTR). Payload-class satellites include a variety of spacecraft equipped with specific instruments for various scientific and technological missions. These include communications satellites like Starlink; space stations such as the ISS; scientific satellites like the Hubble; Earth observation satellites from companies like Planet Labs, Umbra, and HawkEye 360; GPS; miniature CubeSats for education and research; and military/defense satellites.

Loading next visibility...
Identifier
24725, 1997-006A
Orbit
LEO
Country
Flag of CISCIS
Related business
Manufacturer
NPO PM
Mission
Non-operational Defense Communications
Bus & Motor
STRELA-3, Unknown motor
Mass
225 kg wet, 225 kg dry
Launch date (UTC)
1997-02-14 (29 years ago)
Launch vehicle
TSIKLON-3
Launch site
Plesetsk Missile And Space Complex (PKMTR)
Object type
Payload
Rocket body
Debris
Shape & HBR
Cyl + 1 Ant, 3.5 m
Radar Cross Section
1.583 m², Medium (>0.1 m² and < 1m²)

Expand to show TLE details & history
Last TLE update: 10 hours ago

TLE from 10 hours ago
0 COSMOS 2337
1 24725U 97006A   25308.05738751  .00000006  00000-0 -24485-4 0  9990
2 24725  82.6097  62.8186 0008111 270.8533  89.1628 12.60718670321484
Epoch: 2025-11-04T01:22Z
TLE epoch observation values (Epoch: 2025-11-04T01:22:38.280Z)
Latitude
-0.00003°
Longitude
-1.39078°
Altitude
1,422.62 km
Speed
7.15 km/s
True Right ascension
04h 11m 16s
True Declination
0° 00' 00"
Sunlit
Object was in full shadow at epoch
Visualization orbit readout
Latitude
Unknown
Longitude
Unknown
Altitude
Unknown
Speed
Unknown
Apparent Right ascension
Unknown
Apparent Declination
Unknown
Sunlit
N/A
Visualization observer readout
Local Sidereal Time
06:55:08
Azimuth
Unknown
Elevation
Unknown
Doppler factor
Unknown
Orbital elements
Apogee altitude
1,423.624 km
Perigee altitude
1,410.978 km
Semi-major axis
7,795.438 km
Eccentricity
0.00081
Inclination
82.6097°
RAAN
62.8186°
Arg. of periapsis
270.8533°
True anomaly
89.25574°
Mean anomaly
89.1628°
Eccentric anomaly
89.20927°
Mean motion
3.15342 °/min
Orbital period
114.16 mins
BSTAR
-0.000024485
Loading maneuver chart data...
Computing Atmospheric mass density...
Loading historical data...
Loading historical data...
Loading historical data...
Loading historical data...
Loading historical data...
Loading historical data...
Loading historical data...

Documentation

Showing up to 5 results
|